Regional Weather Roundup
Issued by NWS Burlington, VT

Home | Current Version | Previous Version | Text Only | Print | Product List | Glossary On
Versions: 1 2 3 4 5 6 7 8 9 10 11 12 13 14 15 16 17 18 19 20 21 22 23 24 25 26 27 28 29 30 31 32 33 34 35 36 37 38 39 40 41 42 43 44 45 46 47 48 49 50
000
ASUS41 KBTV 260330
RWRBTV
VERMONT REGIONAL WEATHER ROUNDUP
NATIONAL WEATHER SERVICE BURLINGTON VT
1100 PM EDT THU MAY 25 2017

NOTE: "FAIR" INDICATES FEW OR NO CLOUDS BELOW 12,000 FEET WITH NO
SIGNIFICANT WEATHER AND/OR OBSTRUCTIONS TO VISIBILITY.

* THESE REPORTS ARE NOT UNDER NWS QUALITY CONTROL AND/OR DO NOT
  REPORT WEATHER SUCH AS PRECIPITATION AND FOG.

VTZ001>019-260400-
_____VERMONT_____


CITY           SKY/WX    TMP DP  RH WIND       PRES   REMARKS
BURLINGTON     LGT RAIN  57  51  80 E3        29.67F
MONTPELIER     FOG       51  51 100 CALM      29.73F VSB 3/4
MORRISVILLE    RAIN      51  50  96 E3        29.72F FOG
ST. JOHNSBURY*   N/A     55  47  74 MISG      29.70F
LYNDONVILLE*   FAIR      54  46  73 E10G16    29.72F
MIDDLEBURY*    RAIN      54  49  82 S10G17    29.64F
RUTLAND*       LGT RAIN  52  48  86 VRB7G18   29.66S
SPRINGFIELD    CLOUDY    51  48  89 E6G17     29.68F
HIGHGATE*      MOCLDY    53  52  95 NE3       29.67F
NEWPORT*       CLOUDY    54  47  77 E18G28    29.72F
BENNINGTON     CLOUDY    55  46  71 E8        29.58F
SUTTON*          N/A     50 N/A N/A MISG        N/A

_____LAKE CHAMPLAIN_____


CITY           SKY/WX    TMP DP  RH WIND       PRES   REMARKS
BURTON ISLAND*   N/A     55  54  94 SE2         N/A
COLCHESTER RF*   N/A     59  52  77 SE8         N/A
DIAMOND ISL*     N/A     55  52  88 S5          N/A

$$

NYZ007-026>031-035-052-083-087-260400-
_____NORTHERN NEW YORK_____


CITY           SKY/WX    TMP DP  RH WIND       PRES   REMARKS
PLATTSBURGH    CLOUDY    55  53  93 CALM      29.67F
SARANAC LAKE   CLOUDY    51  50  96 E10       29.61F
MASSENA        CLOUDY    56  54  93 NE18G25   29.64F
OGDENSBURG*    CLOUDY    56  55  96 NE9G17    29.60F
POTSDAM*       CLOUDY    55  55 100 E7        29.61S
WATERTOWN      CLOUDY    56  56 100 NE8       29.55F
FT DRUM        DRIZZLE   55  54  94 NE7       29.56F
ALBANY         CLOUDY    55  52  89 N7        29.58F

$$
NHZ002-005-011-260400-
_____NEW HAMPSHIRE_____


CITY           SKY/WX    TMP DP  RH WIND       PRES   REMARKS
LEBANON        CLOUDY    55  48  77 NE10      29.69F
KEENE          CLOUDY    52  47  83 VRB3      29.65F
MT WASHINGTON  LGT RAIN  34  34 100 SE47G62     N/A  VSB 0   WCI  17
PLYMOUTH       CLOUDY    53  48  83 E5G20     29.74F
WHITEFIELD     CLOUDY    56  44  64 E10G17    29.72F

$$

_____REGIONAL QUEBEC LOCATIONS_____


CITY           SKY/WX    TMP DP  RH WIND       PRES   REMARKS
MONTREAL       LGT RAIN  55  54  94 NE13G20   29.71F
QUEBEC CITY    LGT RAIN  54  52  94 NE10      29.86F
SHERBROOKE     CLOUDY    54  52  94 E8        29.74F

_____REGIONAL ONTARIO LOCATIONS_____


CITY           SKY/WX    TMP DP  RH WIND       PRES   REMARKS
OTTAWA         DRIZZLE   54  54 100 E22       29.64F FOG

______KEY______
VSB  - VISIBILITY IN MILES
WCI  - WIND CHILL INDEX
HX   - HEAT INDEX
$$
NNNN




USA.gov is the U.S. government's official web portal to all federal, state and local government web resources and services.